Weather in Irgizskiy

Russia / Samara Oblast     52°10′43″N   50°55′07″E
temp.,
°C
wind,
m/s
gust,
m/s
humid.,
%
clouds,
%
prec.,
mm/h
press.,
hPa
HPBL,
m
28 february, sun
sun2801:000wsw4799100 1.8 999324
04:00−11nnw51095100 2.6 1001310
07:00−13nw6119398 0.3 1003411
10:00−14nw6109399 0.4 1005408
13:00−14nw6993100 0.1 1007402
16:00−14nw61093100 0.1 1009442
19:00−17nw499799 0.0 1012192
22:00−19nw349891 0.1 101480
1 march, mon
mon101:00−19wnw349883 0.0 101569
04:00−18wnw359886 0.1 1017105
07:00−17nw369798 0.1 1019213
10:00−18nw469593 0.1 1021222
13:00−16nw359368 0.0 1021266
16:00−16nw369473 0.0 1022280
19:00−19wnw3310053 0.0 102320
22:00−20w2310061 0.0 102320
2 march, tue
tue201:00−20sw3310072 0.0 102225
04:00−19ssw4610082 0.0 102093
07:00−17ssw599798 0.0 1017196
10:00−12ssw71296100 0.1 1014353
13:00−7ssw81494100 0.7 1010585
16:00−4sw91495100 1.8 1007839
19:00−3sw81496100 0.8 1004702
22:00−2sw71396100 1.8 1002575
3 march, wed
wed301:00−1wsw5998100 1.0 1001306
04:00−2wnw5896100 1.6 1001328
07:00−7w379791 0.1 1001150
10:00−5wnw589695 0.3 1003329
13:00−3wnw5893100 0.1 1003464
16:00−2wnw6996100 0.5 1004557
19:00−3wnw4897100 0.8 1005327
22:00−4nw379497 0.8 1008183
4 march, thu
thu401:00−7nw499799 0.0 1009190
04:00−9nw4109694 0.1 1011231
07:00−12nw479781 0.0 1013128
10:00−11wnw489679 0.1 1015236
13:00−8w479480 0.0 1016279
16:00−8wsw599276 0.0 1016338
19:00−9sw6139555 0.0 1015346
22:00−6sw8159477 0.1 1014608